| time (UTC) | temp C | wind direction | speed KPH | gust KPH | rain 1hr cm | rain 24hr cm | rain mn cm | humidity % | barometer mb |
| 20260505124537 | 18 | 141 | 3.2 | 4.8 | 0.00 | 0.00 | 0.03 | 60 | 1011.5 |
| 20260505123916 | 18 | 242 | 6.4 | 9.7 | 0.00 | 0.00 | 0.03 | 61 | 1011.5 |
| 20260505123326 | 18 | 139 | 4.8 | 6.4 | 0.00 | 0.00 | 0.03 | 59 | 1011.8 |
| 20260505122715 | 18 | 129 | 9.7 | 14.5 | 0.00 | 0.00 | 0.03 | 58 | 1011.5 |
| 20260505122122 | 18 | 173 | 6.4 | 12.9 | 0.00 | 0.00 | 0.03 | 61 | 1011.5 |
| 20260505120935 | 18 | 233 | 8.0 | 9.7 | 0.00 | 0.00 | 0.03 | 61 | 1011.1 |
| 20260505120316 | 18 | 237 | 8.0 | 11.3 | 0.00 | 0.00 | 0.03 | 61 | 1010.8 |
| 20260505115721 | 18 | 245 | 3.2 | 4.8 | 0.00 | 0.00 | 0.03 | 63 | 1011.1 |
| 20260505115152 | 18 | 189 | 3.2 | 6.4 | 0.00 | 0.00 | 0.03 | 62 | 1011.1 |
| 20260505114514 | 18 | 113 | 3.2 | 3.2 | 0.00 | 0.00 | 0.03 | 63 | 1010.8 |
| 20260505113925 | 17 | 193 | 6.4 | 6.4 | 0.00 | 0.00 | 0.03 | 63 | 1010.8 |
| 20260505113317 | 17 | 266 | 4.8 | 6.4 | 0.00 | 0.00 | 0.03 | 62 | 1010.8 |
| 20260505112135 | 17 | 53 | 3.2 | 3.2 | 0.00 | 0.00 | 0.03 | 64 | 1010.8 |
| 20260505111538 | 17 | 160 | 1.6 | 3.2 | 0.00 | 0.00 | 0.03 | 65 | 1010.8 |
| 20260505110926 | 17 | 208 | 3.2 | 3.2 | 0.00 | 0.00 | 0.03 | 65 | 1011.1 |
| 20260505110324 | 17 | 164 | 4.8 | 6.4 | 0.00 | 0.00 | 0.03 | 64 | 1010.8 |
| 20260505101527 | 17 | 217 | 3.2 | 3.2 | 0.00 | 0.00 | 0.03 | 65 | 1010.8 |
| 20260505100942 | 17 | 302 | 3.2 | 4.8 | 0.00 | 0.00 | 0.03 | 65 | 1010.4 |
| 20260505100313 | 17 | 158 | 4.8 | 6.4 | 0.00 | 0.00 | 0.03 | 66 | 1010.4 |
| 20260505095739 | 17 | 160 | 4.8 | 6.4 | 0.00 | 0.00 | 0.03 | 65 | 1010.4 |
| 20260505095146 | 17 | 211 | 4.8 | 6.4 | 0.00 | 0.00 | 0.03 | 65 | 1010.4 |
| 20260505094528 | 17 | 258 | 6.4 | 9.7 | 0.00 | 0.00 | 0.03 | 66 | 1010.4 |
| 20260505093910 | 17 | 92 | 1.6 | 3.2 | 0.00 | 0.00 | 0.03 | 68 | 1010.1 |
| 20260505093331 | 17 | 195 | 4.8 | 6.4 | 0.00 | 0.00 | 0.03 | 66 | 1010.4 |
| 20260505092734 | 17 | 53 | 1.6 | 3.2 | 0.00 | 0.00 | 0.03 | 69 | 1010.1 |
| 20260505092112 | 17 | 158 | 1.6 | 1.6 | 0.00 | 0.00 | 0.03 | 69 | 1010.1 |
| 20260505091543 | 16 | 243 | 1.6 | 6.4 | 0.00 | 0.00 | 0.00 | 70 | 1010.1 |
| 20260505090932 | 16 | 106 | 1.6 | 3.2 | 0.00 | 0.00 | 0.00 | 69 | 1010.1 |
| 20260505090330 | 17 | 91 | 1.6 | 1.6 | 0.00 | 0.00 | 0.00 | 72 | 1010.1 |
| 20260505085725 | 18 | 182 | 9.7 | 12.9 | 0.00 | 0.00 | 0.00 | 63 | 1010.1 |
| 20260505085123 | 18 | 90 | 1.6 | 3.2 | 0.00 | 0.00 | 0.00 | 59 | 1009.8 |
| 20260505084548 | 18 | 339 | 6.4 | 9.7 | 0.00 | 0.00 | 0.00 | 60 | 1009.8 |
| 20260505083930 | 18 | 138 | 1.6 | 9.7 | 0.00 | 0.00 | 0.00 | 60 | 1009.8 |
| 20260505082713 | 18 | 144 | 3.2 | 3.2 | 0.00 | 0.00 | 0.00 | 61 | 1009.4 |
| 20260505081509 | 18 | 84 | 0.0 | 1.6 | 0.00 | 0.00 | 0.00 | 61 | 1009.8 |
| 20260505080952 | 18 | 216 | 4.8 | 4.8 | 0.00 | 0.00 | 0.00 | 60 | 1009.8 |
| 20260505080308 | 18 | 178 | 6.4 | 9.7 | 0.00 | 0.00 | 0.00 | 60 | 1009.4 |
| 20260505075729 | 18 | 207 | 8.0 | 12.9 | 0.00 | 0.00 | 0.00 | 59 | 1009.8 |
| 20260505075111 | 18 | 198 | 3.2 | 3.2 | 0.00 | 0.00 | 0.00 | 61 | 1009.4 |
| 20260505073939 | 18 | 123 | 6.4 | 6.4 | 0.00 | 0.00 | 0.00 | 61 | 1009.4 |
| 20260505073351 | 18 | 202 | 6.4 | 9.7 | 0.00 | 0.00 | 0.00 | 59 | 1009.4 |
| 20260505072150 | 18 | 214 | 4.8 | 6.4 | 0.00 | 0.00 | 0.00 | 60 | 1009.4 |
| 20260505070926 | 18 | 179 | 3.2 | 3.2 | 0.00 | 0.00 | 0.00 | 62 | 1009.1 |
| 20260505070310 | 18 | 234 | 6.4 | 9.7 | 0.00 | 0.00 | 0.00 | 61 | 1009.4 |
| 20260505065739 | 17 | 230 | 3.2 | 3.2 | 0.00 | 0.00 | 0.00 | 62 | 1009.4 |
| 20260505064531 | 17 | 168 | 6.4 | 9.7 | 0.00 | 0.00 | 0.00 | 63 | 1009.4 |
| 20260505063912 | 18 | 83 | 0.0 | 0.0 | 0.00 | 0.00 | 0.00 | 64 | 1009.1 |
| 20260505063352 | 18 | 162 | 6.4 | 6.4 | 0.00 | 0.00 | 0.00 | 62 | 1009.4 |
| 20260505062752 | 17 | 168 | 3.2 | 4.8 | 0.00 | 0.00 | 0.00 | 62 | 1009.4 |
| 20260505062120 | 17 | 177 | 3.2 | 6.4 | 0.00 | 0.00 | 0.00 | 63 | 1009.4 |
| 20260505060932 | 17 | 196 | 4.8 | 6.4 | 0.00 | 0.00 | 0.00 | 63 | 1009.4 |
| 20260505060347 | 17 | 135 | 1.6 | 3.2 | 0.00 | 0.00 | 0.00 | 62 | 1009.4 |
| 20260505055730 | 17 | 91 | 4.8 | 6.4 | 0.00 | 0.00 | 0.00 | 63 | 1009.8 |
| 20260505055120 | 17 | 103 | 3.2 | 3.2 | 0.00 | 0.00 | 0.00 | 64 | 1009.8 |
| 20260505054545 | 17 | 146 | 1.6 | 3.2 | 0.00 | 0.00 | 0.00 | 64 | 1009.8 |
| 20260505053930 | 17 | 238 | 3.2 | 4.8 | 0.00 | 0.00 | 0.00 | 63 | 1009.8 |
| 20260505053309 | 17 | 95 | 1.6 | 3.2 | 0.00 | 0.00 | 0.00 | 64 | 1009.8 |
| 20260505051537 | 17 | 158 | 3.2 | 4.8 | 0.00 | 0.00 | 0.00 | 63 | 1009.8 |
| 20260505050326 | 17 | 122 | 1.6 | 3.2 | 0.00 | 0.00 | 0.00 | 64 | 1009.8 |
| 20260505041526 | 17 | 107 | 1.6 | 1.6 | 0.00 | 0.00 | 0.00 | 69 | 1009.4 |
| 20260505040919 | 17 | 101 | 0.0 | 0.0 | 0.00 | 0.00 | 0.00 | 70 | 1009.4 |
| 20260505035138 | 16 | 93 | 0.0 | 0.0 | 0.00 | 0.00 | 0.00 | 74 | 1009.4 |
| 20260505034556 | 16 | 94 | 0.0 | 0.0 | 0.00 | 0.00 | 0.00 | 74 | 1009.4 |
| 20260505033913 | 16 | 91 | 0.0 | 0.0 | 0.00 | 0.00 | 0.00 | 75 | 1009.4 |
| 20260505033320 | 15 | 94 | 0.0 | 0.0 | 0.00 | 0.00 | 0.00 | 76 | 1009.4 |
| 20260505032719 | 16 | 86 | 0.0 | 0.0 | 0.00 | 0.00 | 0.00 | 77 | 1009.1 |
| 20260505032128 | 15 | 88 | 0.0 | 0.0 | 0.00 | 0.00 | 0.00 | 78 | 1009.1 |
| 20260505031514 | 15 | 88 | 0.0 | 0.0 | 0.00 | 0.00 | 0.00 | 78 | 1009.1 |
| 20260505030941 | 16 | 88 | 0.0 | 0.0 | 0.00 | 0.00 | 0.00 | 77 | 1009.4 |
| 20260505030344 | 16 | 90 | 0.0 | 0.0 | 0.00 | 0.00 | 0.00 | 77 | 1009.4 |
| 20260505025743 | 16 | 95 | 0.0 | 0.0 | 0.00 | 0.00 | 0.00 | 77 | 1009.1 |
| 20260505025129 | 16 | 89 | 0.0 | 0.0 | 0.00 | 0.00 | 0.00 | 78 | 1009.1 |
| 20260505024538 | 16 | 91 | 0.0 | 0.0 | 0.00 | 0.00 | 0.00 | 78 | 1009.1 |
| 20260505022123 | 15 | 89 | 0.0 | 0.0 | 0.00 | 0.00 | 0.00 | 79 | 1008.8 |
| 20260505021511 | 16 | 86 | 0.0 | 0.0 | 0.00 | 0.00 | 0.00 | 77 | 1008.8 |
| 20260505020926 | 16 | 92 | 0.0 | 0.0 | 0.00 | 0.00 | 0.00 | 76 | 1008.8 |
| 20260505020317 | 16 | 99 | 0.0 | 0.0 | 0.00 | 0.00 | 0.00 | 76 | 1008.8 |
| 20260505015154 | 16 | 87 | 0.0 | 0.0 | 0.00 | 0.00 | 0.00 | 74 | 1009.1 |
| 20260505014530 | 16 | 84 | 0.0 | 0.0 | 0.00 | 0.00 | 0.00 | 75 | 1009.1 |
| 20260505013918 | 17 | 96 | 0.0 | 1.6 | 0.00 | 0.00 | 0.00 | 73 | 1008.8 |
| 20260505013318 | 17 | 91 | 0.0 | 0.0 | 0.00 | 0.00 | 0.00 | 73 | 1008.8 |
| 20260505012711 | 17 | 92 | 0.0 | 1.6 | 0.00 | 0.00 | 0.00 | 73 | 1008.8 |
| 20260505012147 | 16 | 95 | 0.0 | 0.0 | 0.00 | 0.00 | 0.00 | 73 | 1008.8 |
| 20260505011536 | 16 | 91 | 0.0 | 0.0 | 0.00 | 0.00 | 0.00 | 74 | 1008.8 |
| 20260505010914 | 17 | 90 | 0.0 | 0.0 | 0.00 | 0.00 | 0.00 | 73 | 1008.8 |
| 20260505010331 | 16 | 79 | 0.0 | 0.0 | 0.00 | 0.00 | 0.00 | 74 | 1008.8 |
| 20260505005751 | 16 | 85 | 0.0 | 0.0 | 0.00 | 0.00 | 0.00 | 75 | 1008.8 |
| 20260505005121 | 16 | 103 | 0.0 | 0.0 | 0.00 | 0.00 | 0.00 | 76 | 1008.8 |
| 20260505004534 | 16 | 93 | 0.0 | 0.0 | 0.00 | 0.00 | 0.00 | 76 | 1008.4 |
| 20260505003929 | 17 | 92 | 0.0 | 0.0 | 0.00 | 0.00 | 0.00 | 74 | 1008.4 |
| 20260505003354 | 17 | 90 | 0.0 | 0.0 | 0.00 | 0.00 | 0.00 | 72 | 1008.4 |
| 20260505002111 | 17 | 90 | 0.0 | 0.0 | 0.00 | 0.00 | 0.00 | 69 | 1008.8 |
| 20260505001513 | 18 | 88 | 0.0 | 0.0 | 0.00 | 0.00 | 0.00 | 68 | 1008.4 |
| 20260505000916 | 18 | 84 | 0.0 | 0.0 | 0.00 | 0.00 | 0.00 | 66 | 1008.8 |
| 20260505000318 | 19 | 88 | 0.0 | 0.0 | 0.00 | 0.00 | 0.00 | 65 | 1008.8 |
| 20260504235715 | 20 | 85 | 0.0 | 0.0 | 0.00 | 0.00 | 0.00 | 63 | 1008.8 |
| 20260504234528 | 20 | 85 | 0.0 | 0.0 | 0.00 | 0.00 | 0.00 | 60 | 1009.1 |
| 20260504233933 | 21 | 85 | 0.0 | 0.0 | 0.00 | 0.00 | 0.00 | 59 | 1009.1 |
| 20260504233341 | 21 | 94 | 0.0 | 0.0 | 0.00 | 0.00 | 0.00 | 57 | 1009.1 |
| 20260504232715 | 21 | 111 | 0.0 | 0.0 | 0.00 | 0.00 | 0.00 | 56 | 1009.1 |
| 20260504232153 | 21 | 95 | 1.6 | 1.6 | 0.00 | 0.00 | 0.00 | 56 | 1009.1 |
| 20260504231519 | 21 | 129 | 3.2 | 3.2 | 0.00 | 0.00 | 0.00 | 55 | 1008.8 |
| 20260504230952 | 21 | 161 | 3.2 | 3.2 | 0.00 | 0.00 | 0.00 | 55 | 1009.1 |
| 20260504225714 | 21 | 103 | 1.6 | 1.6 | 0.00 | 0.00 | 0.00 | 55 | 1009.4 |
| 20260504225147 | 22 | 128 | 0.0 | 0.0 | 0.00 | 0.00 | 0.00 | 53 | 1009.4 |
| 20260504224511 | 22 | 106 | 0.0 | 1.6 | 0.00 | 0.00 | 0.00 | 52 | 1009.4 |
| 20260504223935 | 22 | 182 | 3.2 | 4.8 | 0.00 | 0.00 | 0.00 | 52 | 1009.4 |
| 20260504223316 | 22 | 240 | 4.8 | 4.8 | 0.00 | 0.00 | 0.00 | 52 | 1009.8 |
| 20260504222753 | 23 | 160 | 3.2 | 3.2 | 0.00 | 0.00 | 0.00 | 52 | 1009.8 |
| 20260504222112 | 22 | 146 | 4.8 | 4.8 | 0.00 | 0.00 | 0.00 | 52 | 1009.8 |
| 20260504221522 | 22 | 183 | 1.6 | 3.2 | 0.00 | 0.00 | 0.00 | 52 | 1009.8 |
| 20260504220927 | 22 | 299 | 3.2 | 4.8 | 0.00 | 0.00 | 0.00 | 52 | 1010.1 |
| 20260504220316 | 22 | 261 | 4.8 | 9.7 | 0.00 | 0.00 | 0.00 | 51 | 1010.1 |
| 20260504215123 | 22 | 76 | 0.0 | 0.0 | 0.00 | 0.00 | 0.00 | 55 | 1010.1 |
| 20260504214552 | 22 | 237 | 8.0 | 9.7 | 0.00 | 0.00 | 0.00 | 50 | 1010.1 |
| 20260504213951 | 22 | 164 | 3.2 | 4.8 | 0.00 | 0.00 | 0.00 | 52 | 1010.1 |
| 20260504211527 | 21 | 137 | 6.4 | 9.7 | 0.00 | 0.00 | 0.00 | 52 | 1010.4 |
| 20260504210950 | 21 | 57 | 0.0 | 1.6 | 0.00 | 0.00 | 0.00 | 52 | 1010.1 |
| 20260504210330 | 21 | 85 | 1.6 | 3.2 | 0.00 | 0.00 | 0.00 | 53 | 1010.4 |
| 20260504205734 | 22 | 196 | 3.2 | 6.4 | 0.00 | 0.00 | 0.00 | 51 | 1010.4 |
| 20260504205140 | 22 | 157 | 4.8 | 9.7 | 0.00 | 0.00 | 0.00 | 51 | 1010.1 |
| 20260504204542 | 21 | 190 | 4.8 | 4.8 | 0.00 | 0.00 | 0.00 | 52 | 1010.1 |
| 20260504203931 | 21 | 272 | 4.8 | 6.4 | 0.00 | 0.00 | 0.00 | 52 | 1010.1 |
| 20260504202734 | 21 | 56 | 3.2 | 4.8 | 0.00 | 0.00 | 0.00 | 56 | 1010.1 |
| 20260504202114 | 21 | 86 | 1.6 | 3.2 | 0.00 | 0.00 | 0.00 | 55 | 1010.1 |
| 20260504201541 | 21 | 125 | 1.6 | 3.2 | 0.00 | 0.00 | 0.00 | 55 | 1010.1 |
| 20260504200320 | 21 | 190 | 6.4 | 9.7 | 0.00 | 0.00 | 0.00 | 54 | 1010.1 |
| 20260504195752 | 21 | 258 | 6.4 | 6.4 | 0.00 | 0.00 | 0.00 | 53 | 1009.8 |
| 20260504195124 | 21 | 141 | 4.8 | 4.8 | 0.00 | 0.00 | 0.00 | 54 | 1009.8 |
| 20260504194552 | 21 | 137 | 4.8 | 9.7 | 0.00 | 0.00 | 0.00 | 52 | 1009.8 |
| 20260504193936 | 21 | 185 | 6.4 | 9.7 | 0.00 | 0.00 | 0.00 | 52 | 1009.8 |
| 20260504193337 | 22 | 149 | 8.0 | 12.9 | 0.00 | 0.00 | 0.00 | 48 | 1010.1 |
| 20260504192722 | 21 | 121 | 1.6 | 1.6 | 0.00 | 0.00 | 0.00 | 54 | 1010.1 |
| 20260504192139 | 21 | 223 | 6.4 | 11.3 | 0.00 | 0.00 | 0.00 | 52 | 1010.4 |
| 20260504191533 | 21 | 192 | 8.0 | 9.7 | 0.00 | 0.00 | 0.00 | 53 | 1010.4 |
| 20260504190949 | 21 | 146 | 8.0 | 11.3 | 0.00 | 0.00 | 0.00 | 54 | 1010.1 |
| 20260504185733 | 21 | 153 | 3.2 | 3.2 | 0.00 | 0.00 | 0.00 | 54 | 1010.4 |
| 20260504184535 | 20 | 172 | 6.4 | 6.4 | 0.00 | 0.00 | 0.00 | 55 | 1010.8 |
| 20260504183943 | 21 | 202 | 6.4 | 12.9 | 0.00 | 0.00 | 0.00 | 55 | 1010.8 |
| 20260504183329 | 20 | 125 | 4.8 | 6.4 | 0.00 | 0.00 | 0.00 | 56 | 1010.8 |
| 20260504182741 | 20 | 88 | 1.6 | 3.2 | 0.00 | 0.00 | 0.00 | 56 | 1010.8 |
| 20260504182142 | 20 | 152 | 1.6 | 3.2 | 0.00 | 0.00 | 0.00 | 57 | 1010.8 |
| 20260504181512 | 20 | 256 | 3.2 | 6.4 | 0.00 | 0.00 | 0.00 | 58 | 1011.1 |
| 20260504180923 | 20 | 233 | 8.0 | 14.5 | 0.00 | 0.00 | 0.00 | 54 | 1010.8 |
| 20260504180320 | 20 | 148 | 6.4 | 9.7 | 0.00 | 0.00 | 0.00 | 57 | 1010.8 |
| 20260504175748 | 21 | 256 | 6.4 | 6.4 | 0.00 | 0.00 | 0.00 | 54 | 1010.8 |
| 20260504174534 | 20 | 137 | 3.2 | 3.2 | 0.00 | 0.00 | 0.00 | 57 | 1011.1 |
| 20260504173931 | 20 | 202 | 6.4 | 11.3 | 0.00 | 0.00 | 0.00 | 56 | 1011.1 |
| 20260504172713 | 20 | 217 | 4.8 | 9.7 | 0.00 | 0.00 | 0.00 | 55 | 1011.1 |
| 20260504172134 | 20 | 116 | 6.4 | 9.7 | 0.00 | 0.00 | 0.00 | 56 | 1011.1 |
| 20260504171554 | 20 | 285 | 6.4 | 14.5 | 0.00 | 0.00 | 0.00 | 54 | 1011.1 |
| 20260504170919 | 20 | 62 | 0.0 | 1.6 | 0.00 | 0.00 | 0.00 | 59 | 1011.1 |
| 20260504170335 | 19 | 236 | 11.3 | 14.5 | 0.00 | 0.00 | 0.00 | 55 | 1011.5 |
| 20260504160347 | 18 | 88 | 3.2 | 4.8 | 0.00 | 0.00 | 0.00 | 59 | 1012.1 |
| 20260504141236 | 16 | 230 | 8.0 | 12.9 | 0.00 | 0.00 | 0.00 | 59 | 1013.2 |
| 20260504140653 | 15 | 240 | 8.0 | 9.7 | 0.00 | 0.00 | 0.00 | 60 | 1013.2 |